Location: Erp
(42.9417°N, 1.2009°E)
Time: 05:25:53
(UTC+00:00)

Okean 2 - Visible Passes

Search period start: 19 April 2026 00:00
Search period end: 29 April 2026 00:00
Orbit: 513 x 523 km, 82.5° (Epoch: 18 April)

Date Brightness Start Highest point End Pass type
(mag) Time Alt. Az. Time Alt. Az. Time Alt. Az.
26 Apr 5.3 04:25:56 10° SSE 04:29:19 31° E 04:32:43 10° NNE visible
27 Apr 5.6 04:11:45 10° SSE 04:14:58 26° E 04:18:11 10° NNE visible
28 Apr 5.9 03:57:38 10° SE 04:00:37 22° E 04:03:36 10° NE visible
